This is the latest recevied weather packets stored in our database for station/object XE3JAR. If no packets are shown the sender has not sent any weather packets the latest 10 day(s).
| Time | Temp. | Humidity | Pressure | Rain* | Wind** | Luminosity | Snow |
|---|---|---|---|---|---|---|---|
| 1778234938 | 27.22° C | 96% | 1013.2 hPa | - | - | - | - |
| 1778234630 | 27.22° C | 96% | 1012.9 hPa | - | - | - | - |
| 1778232201 | 27.78° C | 95% | 1012.9 hPa | - | - | - | - |
| 1778228361 | 27.78° C | 93% | 1013.2 hPa | - | - | - | - |
| 1778226842 | 28.89° C | 92% | 1013.6 hPa | - | - | - | - |
| 1778226231 | 27.78° C | 91% | 1013.6 hPa | - | - | - | - |
| 1778224702 | 27.78° C | 90% | 1014.2 hPa | - | - | - | - |
| 1778224114 | 28.89° C | 91% | 1014.2 hPa | - | - | - | - |
| 1778223503 | 27.78° C | 90% | 1014.2 hPa | - | - | - | - |
| 1778214303 | 30° C | 79% | 1014.6 hPa | - | - | - | - |
| 1778212496 | 31.11° C | 78% | 1014.2 hPa | - | - | - | - |
| 1778211567 | 31.11° C | 76% | 1014.2 hPa | - | - | - | - |
| 1778211285 | 31.11° C | 76% | 1014.2 hPa | - | - | - | - |
| 1778210052 | 31.11° C | 75% | 1013.9 hPa | - | - | - | - |
| 1778209142 | 31.11° C | 74% | 1014.2 hPa | - | - | - | - |
| 1778208848 | 31.11° C | 74% | 1013.9 hPa | - | - | - | - |
| 1778207625 | 31.11° C | 74% | 1013.9 hPa | - | - | - | - |
| 1778207020 | 32.22° C | 74% | 1013.6 hPa | - | - | - | - |
| 1778204604 | 32.22° C | 78% | 1012.9 hPa | - | - | - | - |
| 1778201262 | 33.89° C | 70% | 1012.2 hPa | - | - | - | - |
| 1778196543 | 37.22° C | 64% | 1011.5 hPa | - | - | - | - |
| 1778195919 | 37.78° C | 63% | 1011.5 hPa | - | - | - | - |
| 1778194129 | 38.89° C | 60% | 1011.2 hPa | - | - | - | - |
| 1778192729 | 40° C | 57% | 1010.8 hPa | - | - | - | - |
| 1778191535 | 41.11° C | 55% | 1011.2 hPa | - | - | - | - |
* Rain since midnight (hover to see other rain measurements)
** Current wind speed in m/s (hover to see current wind gust speed)